Home > Weather > Innsbruck > Past weeks

Flag for Austria Past Weather in Innsbruck, Tyrol, Austria — Yesterday and Last 2 Weeks

Now
59 °F

Scattered clouds.


Feels Like: N/A
Forecast: 64 / 77 °F
Wind: N/A

Location: Innsbruck-Flughafen

Current Time: Jul 24, 2016 at 6:57:09 AM

Latest Report: Jul 24, 2016 at 6:00 AM


Visibility: 16 mi

Pressure: 30.13 "Hg (28.16 "Hg at 570m altitude)

Humidity: 94%

Dew Point: 58 °F

Location of InnsbruckLocation

Past Weather in Innsbruck — Graph

°F

Innsbruck Temperature Yesterday

Maximum temperature yesterday: 75 °F (at 5:00 PM)
Minimum temperature yesterday: 61 °F (at 6:00 AM)
Average temperature yesterday: 68 °F

High & Low Weather Summary for the Past Weeks

 TemperatureHumidityPressure
High89 °F (Jul 10, 5:00 PM)98% (Jul 13, 3:00 AM)30.36 "Hg (Jul 13, 3:00 AM)
Low48 °F (Jul 14, 5:00 AM)33% (Jul 20, 3:00 PM)29.76 "Hg (Jul 11, 4:00 PM)
Average65 °F77%30.07 "Hg
* Reported Jul 9 5:00 AM — Jul 24 5:00 AM, Innsbruck, Weather by CustomWeather, © 2016

Note: Actual official high and low records may vary slightly from our data, if they occured in-between our weather recording intervals... More about our weather records

Advertising

Innsbruck Weather History for the Previous 24 Hours

Scroll right to see more
 ConditionsComfort  
Time TempWeatherWind HumidityBarometerVisibility
5:00 AM
Sun, Jul 24
61 °FPassing clouds.N/A92%30.11 "Hg16 mi
4:00 AM61 °FPassing clouds.N/A89%30.11 "Hg16 mi
3:00 AM63 °FMild.N/A89%30.10 "Hg18 mi
2:00 AM65 °FOvercast.N/A85%30.09 "Hg25 mi
1:00 AM65 °FOvercast.N/A85%30.09 "Hg25 mi
12:00 AM65 °FOvercast.N/A83%30.08 "Hg6 mi
9:00 PM
Sat, Jul 23
69 °FOvercast.N/A80%29.99 "Hg22 mi
8:00 PM71 °FOvercast.5 mph77%29.97 "Hg22 mi
7:00 PM72 °FOvercast.5 mph73%29.95 "Hg19 mi
6:00 PM73 °FOvercast.5 mph67%29.95 "Hg17 mi
5:00 PM75 °FOvercast.5 mph62%29.95 "Hg12 mi
4:00 PM74 °FOvercast.5 mph63%29.98 "Hg19 mi
3:00 PM74 °FOvercast.N/A64%29.99 "Hg16 mi
2:00 PM73 °FOvercast.N/A66%29.98 "Hg25 mi
1:00 PM73 °FOvercast.N/A67%29.97 "Hg17 mi
12:00 PM71 °FOvercast.N/A71%29.99 "Hg16 mi
11:00 AM70 °FOvercast.N/A74%30.01 "Hg19 mi
10:00 AM67 °FOvercast.N/A80%30.02 "Hg16 mi
9:00 AM65 °FPartly sunny.N/A84%30.03 "Hg19 mi
8:00 AM64 °FScattered clouds.N/A88%30.03 "Hg14 mi
7:00 AM62 °FScattered clouds.N/A91%30.03 "Hg22 mi
6:00 AM61 °FPartly sunny.N/A92%30.03 "Hg11 mi
Weather by CustomWeather, © 2016

See weather overviewHow to use our weather pages